Location: ??
(35.1714°N, 128.2806°E)
Time: 20:20:39
(UTC+00:00)

Tiangong - Pass Details

Date: 25 June 2021
Orbit: 373 x 385 km, 41.5° (Epoch: 04 August)

Event Time Altitude Azimuth Distance (km) Brightness Sun altitude
Rises 19:26:04 0° 295° (WNW) 2,240 4.7 -9.0°
Reaches altitude 10° 19:28:17 10° 307° (NW) 1,391 3.7 -8.7°
Maximum altitude 19:31:05 29° 10° (N) 731 3.0 -8.2°
Drops below altitude 10° 19:33:54 10° 73° (ENE) 1,397 5.3 -7.7°
Sets 19:36:08 0° 85° (E) 2,252 6.1 -7.4°
